This is the latest recevied weather packets stored in our database for station/object W4NDF-13. If no packets are shown the sender has not sent any weather packets the latest 10 day(s).
| Time | Temp. | Humidity | Pressure | Rain* | Wind** | Luminosity | Snow |
|---|---|---|---|---|---|---|---|
| 1777844105 | 25° C | 35% | 1020.1 hPa | 0 mm | - | 453 W/m² | - |
| 1777843801 | 25° C | 35% | 1020.2 hPa | 0 mm | - | 472 W/m² | - |
| 1777843498 | 24.44° C | 35% | 1020.2 hPa | 0 mm | - | 489 W/m² | - |
| 1777843196 | 24.44° C | 34% | 1020.3 hPa | 0 mm | - | 505 W/m² | - |
| 1777842893 | 25° C | 35% | 1020.3 hPa | 0 mm | - | 519 W/m² | - |
| 1777842588 | 25° C | 34% | 1020.5 hPa | 0 mm | - | 529 W/m² | - |
| 1777842286 | 25° C | 35% | 1020.5 hPa | 0 mm | - | 549 W/m² | - |
| 1777841986 | 25° C | 34% | 1020.5 hPa | 0 mm | - | 561 W/m² | - |
| 1777841683 | 24.44° C | 33% | 1020.6 hPa | 0 mm | - | 578 W/m² | - |
| 1777841379 | 24.44° C | 35% | 1020.7 hPa | 0 mm | - | 591 W/m² | - |
| 1777841076 | 24.44° C | 34% | 1020.7 hPa | 0 mm | - | 606 W/m² | - |
| 1777840773 | 25° C | 33% | 1020.6 hPa | 0 mm | - | 617 W/m² | - |
| 1777840471 | 24.44° C | 34% | 1020.7 hPa | 0 mm | - | 630 W/m² | - |
| 1777840167 | 24.44° C | 34% | 1020.8 hPa | 0 mm | - | 643 W/m² | - |
| 1777839866 | 24.44° C | 36% | 1020.7 hPa | 0 mm | - | 657 W/m² | - |
| 1777839564 | 24.44° C | 35% | 1020.6 hPa | 0 mm | - | 665 W/m² | - |
| 1777839261 | 24.44° C | 34% | 1020.8 hPa | 0 mm | - | 677 W/m² | - |
| 1777838958 | 23.89° C | 34% | 1021.1 hPa | 0 mm | - | 690 W/m² | - |
| 1777838654 | 23.89° C | 34% | 1021.1 hPa | 0 mm | - | 697 W/m² | - |
| 1777838351 | 23.89° C | 35% | 1021.2 hPa | 0 mm | - | 709 W/m² | - |
| 1777838048 | 23.89° C | 35% | 1021.5 hPa | 0 mm | - | 719 W/m² | - |
| 1777837745 | 24.44° C | 34% | 1021.8 hPa | 0 mm | - | 729 W/m² | - |
| 1777837441 | 25° C | 35% | 1021.8 hPa | 0 mm | - | 739 W/m² | - |
| 1777837138 | 23.89° C | 34% | 1021.9 hPa | 0 mm | - | 746 W/m² | - |
| 1777836833 | 23.89° C | 35% | 1022.1 hPa | 0 mm | - | 754 W/m² | - |
* Rain latest hour (hover to see other rain measurements)
** Current wind speed in m/s (hover to see current wind gust speed)